Watertown, SD

11:20 PM CST on December 07, 2016 (GMT -0600)
Watertown Municipal

Weather History for KATY - January, 2014

Change the Weather History Date:

Wednesday, January 15, 2014

  Actual Average Record
Temperature  
Mean Temperature 13 °F 12 °F  
Max Temperature 37 °F 22 °F 46 °F (1919)
Min Temperature -11 °F 3 °F -35 °F (1972)
Degree Days  
Heating Degree Days 52 53  
Month to date heating degree days 854 788  
Since 1 July heating degree days 4452 4247  
Cooling Degree Days 0 0  
Month to date cooling degree days 0 0  
Year to date cooling degree days 0 0  
Moisture  
Dew Point 9 °F    
Average Humidity 85    
Maximum Humidity 100    
Minimum Humidity 70    
Precipitation  
Precipitation T in 0.01 in 0.45 in (1956)
Month to date precipitation 0.05 0.25  
Year to date precipitation 0.05 0.25  
Snow  
Snow T in - - ()
Month to date snowfall 0.8  
Since 1 July snowfall 12.2  
Snow Depth 8.00 in    
Sea Level Pressure  
Sea Level Pressure 29.89 in    
Wind  
Wind Speed 13 mph (SW)    
Max Wind Speed 26 mph    
Max Gust Speed 39 mph    
Visibility 9 miles    
Events Snow    
T = Trace of Precipitation, MM = Missing Value Source: NWS Daily Summary

Daily Weather History Graph

Daily Weather History Graph

Search for Another Location

Airport or City:

Trip Planner

Search our weather history database for the weather conditions in past years. The results will help you decide how hot, cold, wet, or windy it might be!

Date:

Astronomy

Jan. 15, 2014 Rise Set
Actual Time 8:02 AM CST 5:13 PM CST
Civil Twilight 7:30 AM CST 5:46 PM CST
Nautical Twilight 6:53 AM CST 6:22 PM CST
Astronomical Twilight 6:18 AM CST 6:57 PM CST
Moon 5:15 PM CST (1/15) 7:17 AM CST (1/15)
Length of Visible Light 10h 16m
Length of Day
9h 10m
Full, 100% of the Moon is Illuminated
Jan 15
Full
Jan 15
Full
Jan 23
Last Quarter
Jan 30
New
Feb 6
First Quarter

Hourly Weather History & Observations

Time (CST) Temp. Windchill Dew Point Humidity Pressure Visibility Wind Dir Wind Speed Gust Speed Precip Events Conditions
12:53 AM 1.0 °F -14.0 °F -2.0 °F 87% 30.25 in 10.0 mi NW 9.2 mph - N/A   Clear
1:53 AM -4.0 °F -16.3 °F -6.0 °F 91% 30.25 in 10.0 mi West 5.8 mph - N/A   Clear
2:53 AM -5.1 °F -19.1 °F -7.1 °F 91% 30.26 in 10.0 mi West 6.9 mph - N/A   Clear
3:53 AM -6.0 °F -14.7 °F -9.9 °F 83% 30.25 in 10.0 mi SW 3.5 mph - N/A   Clear
4:53 AM -7.1 °F -19.9 °F -9.0 °F 91% 30.21 in 10.0 mi WSW 5.8 mph - N/A   Clear
5:53 AM -7.1 °F -18.1 °F -8.0 °F 96% 30.17 in 10.0 mi SSW 4.6 mph - N/A   Clear
6:53 AM -7.1 °F -18.1 °F -9.0 °F 91% 30.17 in 10.0 mi SSW 4.6 mph - N/A   Scattered Clouds
7:53 AM -2.0 °F -12.2 °F -6.0 °F 83% 30.13 in 10.0 mi SSE 4.6 mph - N/A   Overcast
8:53 AM 1.0 °F -10.3 °F -2.9 °F 83% 30.08 in 10.0 mi SSE 5.8 mph - N/A   Overcast
9:53 AM 6.1 °F -10.9 °F 1.0 °F 80% 30.05 in 10.0 mi SSW 13.8 mph - N/A   Mostly Cloudy
10:53 AM 10.0 °F -4.5 °F 3.0 °F 73% 30.00 in 4.0 mi South 11.5 mph - 0.00 in Snow Light Snow
11:01 AM 10.4 °F -5.4 °F 5.0 °F 79% 29.86 in 2.0 mi South 13.8 mph - 0.00 in Snow Light Snow
11:05 AM 10.4 °F -6.0 °F 5.0 °F 79% 29.86 in 3.0 mi South 15.0 mph - 0.00 in Snow Light Snow
11:34 AM 10.4 °F -6.6 °F 6.8 °F 85% 29.82 in 2.0 mi South 16.1 mph - 0.00 in Snow Light Snow
11:46 AM 12.2 °F -4.8 °F 8.6 °F 85% 29.79 in 5.0 mi South 17.3 mph - 0.00 in Snow Light Snow
11:53 AM 12.9 °F -2.8 °F 8.1 °F 81% 29.89 in 6.0 mi South 15.0 mph - 0.00 in Snow Light Snow
12:53 PM 16.0 °F -1.7 °F 10.9 °F 81% 29.81 in 9.0 mi SSW 21.9 mph 26.5 mph 0.00 in   Mostly Cloudy
1:53 PM 19.9 °F 5.7 °F 15.1 °F 81% 29.76 in 10.0 mi South 16.1 mph 25.3 mph N/A   Mostly Cloudy
2:53 PM 23.0 °F 8.7 °F 18.0 °F 81% 29.73 in 10.0 mi SSW 18.4 mph - N/A   Overcast
3:53 PM 26.1 °F 13.1 °F 21.0 °F 81% 29.70 in 10.0 mi SSW 17.3 mph - N/A   Scattered Clouds
4:53 PM 28.0 °F 17.0 °F 21.9 °F 78% 29.67 in 10.0 mi SW 13.8 mph - N/A   Clear
5:53 PM 30.9 °F 20.7 °F 25.0 °F 79% 29.65 in 10.0 mi WSW 13.8 mph - N/A   Clear
6:53 PM 36.0 °F 24.2 °F 28.9 °F 76% 29.63 in 10.0 mi West 24.2 mph 32.2 mph N/A   Overcast
7:53 PM 35.1 °F 24.8 °F 28.9 °F 78% 29.60 in 10.0 mi West 17.3 mph - N/A   Clear
8:53 PM 36.0 °F 25.0 °F 28.9 °F 76% 29.59 in 10.0 mi West 20.7 mph 27.6 mph N/A   Clear
9:53 PM 36.0 °F 25.3 °F 27.0 °F 70% 29.60 in 10.0 mi West 19.6 mph 28.8 mph N/A   Scattered Clouds
10:53 PM 35.1 °F 23.0 °F 28.0 °F 76% 29.57 in 10.0 mi West 24.2 mph 31.1 mph N/A   Overcast
11:53 PM 35.1 °F 23.0 °F 25.0 °F 67% 29.56 in 10.0 mi West 24.2 mph 35.7 mph N/A   Mostly Cloudy